Weather History for Juneau, AK

Change the Weather History Date:

Saturday, March 16, 2013

  Actual Average Record
Temperature  
Mean Temperature 23 °F 34 °F  
Max Temperature 30 °F 39 °F 53 °F (1990)
Min Temperature 16 °F 28 °F -2 °F (2006)
Degree Days  
Heating Degree Days 42 31  
Month to date heating degree days 557 521  
Since 1 July heating degree days 6628 6358  
Cooling Degree Days 0 0  
Month to date cooling degree days 0 0  
Year to date cooling degree days 0 0  
Moisture  
Dew Point 20 °F    
Average Humidity 82    
Maximum Humidity 100    
Minimum Humidity 63    
Precipitation  
Precipitation 0.02 in 0.12 in 0.80 in (1960)
Month to date precipitation 1.36 2.07  
Year to date precipitation 15.67 11.55  
Snow  
Snow 0.20 in 0.40 in 6.80 in (2007)
Month to date snowfall 4.0 7.3  
Since 1 July snowfall 67.4 81.3  
Snow Depth 4.00 in    
Sea Level Pressure  
Sea Level Pressure 30.01 in    
Wind  
Wind Speed 3 mph (NW)    
Max Wind Speed 12 mph    
Max Gust Speed 14 mph    
Visibility 8 miles    
Events Snow    
T = Trace of Precipitation, MM = Missing Value Source: NWS Daily Summary

Daily Weather History Graph

Daily Weather History Graph

Search for Another Location

Airport:

Trip Planner

Search our weather history database for the weather conditions in past years. The results will help you decide how hot, cold, wet, or windy it might be!

Date:

Astronomy

Mar. 16, 2013 Rise Set
Actual Time 7:10 AM AKDT 7:04 PM AKDT
Civil Twilight 6:30 AM AKDT 7:44 PM AKDT
Nautical Twilight 5:44 AM AKDT 8:31 PM AKDT
Astronomical Twilight 4:54 AM AKDT 9:20 PM AKDT
Moon 8:36 AM AKDT (3/16) 12:30 AM AKDT (3/16)
Length of Visible Light 13h 13m
Length of Day
11h 54m
Waxing Crescent, 24% of the Moon is Illuminated
Mar 16
Waxing Crescent
Mar 19
First Quarter
Mar 27
Full
Apr 2
Last Quarter
Apr 10
New

Hourly Weather History & Observations

Time (AKDT) Temp. Windchill Dew Point Humidity Pressure Visibility Wind Dir Wind Speed Gust Speed Precip Events Conditions
12:17 AM 23.0 °F 17.0 °F 19.9 °F 88% 30.02 in 2.5 mi ESE 4.6 mph - 0.01 in Snow Light Snow
12:28 AM 23.0 °F 18.4 °F 19.9 °F 88% 30.02 in 2.0 mi ESE 3.5 mph - 0.01 in Snow Light Snow
12:53 AM 23.0 °F 17.0 °F 19.9 °F 88% 30.03 in 2.0 mi East 4.6 mph - 0.01 in Snow Light Snow
1:00 AM 23.0 °F 17.0 °F 19.9 °F 88% 30.02 in 4.0 mi East 4.6 mph - 0.00 in Snow Light Snow
1:53 AM 23.0 °F 17.0 °F 19.0 °F 85% 30.03 in 7.0 mi ENE 4.6 mph - 0.00 in Snow Light Snow
2:53 AM 23.0 °F 15.8 °F 19.0 °F 85% 30.04 in 10.0 mi ENE 5.8 mph - 0.00 in   Overcast
3:53 AM 24.1 °F 19.7 °F 18.0 °F 77% 30.04 in 10.0 mi ENE 3.5 mph - N/A   Overcast
4:53 AM 21.9 °F - 19.9 °F 92% 30.03 in 6.0 mi Calm Calm - 0.00 in Snow Light Snow
5:24 AM 21.0 °F 16.2 °F 19.0 °F 92% 30.02 in 9.0 mi East 3.5 mph - 0.00 in   Mostly Cloudy
5:53 AM 19.9 °F - 19.0 °F 96% 30.02 in 10.0 mi Calm Calm - 0.00 in   Mostly Cloudy
6:53 AM 17.1 °F - 16.0 °F 96% 30.03 in 10.0 mi Calm Calm - N/A   Mostly Cloudy
7:53 AM 18.0 °F - 17.1 °F 96% 30.03 in 10.0 mi Calm Calm - N/A   Mostly Cloudy
8:53 AM 19.9 °F - 19.0 °F 96% 30.03 in 10.0 mi Calm Calm - N/A   Mostly Cloudy
9:53 AM 21.0 °F - 19.9 °F 96% 30.02 in 10.0 mi Calm Calm - N/A   Mostly Cloudy
10:53 AM 25.0 °F - 16.0 °F 69% 30.02 in 10.0 mi Calm Calm - N/A   Mostly Cloudy
11:53 AM 30.0 °F - 19.0 °F 64% 30.02 in 10.0 mi Calm Calm - N/A   Overcast
12:53 PM 28.0 °F 22.8 °F 19.9 °F 72% 30.02 in 10.0 mi West 4.6 mph - N/A   Overcast
1:53 PM 28.9 °F 22.8 °F 23.0 °F 78% 30.01 in 10.0 mi WSW 5.8 mph - 0.00 in Snow Light Snow
2:53 PM 28.9 °F 21.9 °F 21.9 °F 75% 30.01 in 10.0 mi West 6.9 mph - 0.00 in   Overcast
3:53 PM 30.0 °F 24.1 °F 21.9 °F 72% 29.99 in 10.0 mi WSW 5.8 mph - 0.00 in Snow Light Snow
4:53 PM 28.9 °F 21.9 °F 21.9 °F 75% 29.99 in 10.0 mi West 6.9 mph - 0.00 in   Overcast
5:53 PM 28.9 °F 23.9 °F 21.9 °F 75% 29.98 in 10.0 mi West 4.6 mph - N/A   Overcast
6:53 PM 28.0 °F 21.7 °F 21.9 °F 78% 29.98 in 10.0 mi West 5.8 mph - N/A   Overcast
7:53 PM 28.0 °F 22.8 °F 23.0 °F 81% 29.99 in 10.0 mi WNW 4.6 mph - N/A   Overcast
8:53 PM 28.9 °F - 23.0 °F 78% 29.99 in 10.0 mi Calm Calm - N/A   Overcast
9:53 PM 28.0 °F 24.2 °F 23.0 °F 81% 29.99 in 10.0 mi NW 3.5 mph - N/A   Overcast
10:53 PM 28.0 °F - 24.1 °F 85% 30.01 in 4.0 mi Calm Calm - 0.00 in Snow Light Snow
11:53 PM 27.0 °F - 25.0 °F 92% 30.01 in 2.0 mi Calm Calm - 0.01 in Snow Light Snow